H1 CPF 2 NER 2025 8 11 9 223 01 glonass141 H2 1908801 9141 44850 2025 8 11 0 0 0 2025 8 14 23 45 0 900 1 1 0 0 0 1 H9 10 0 60898 0.00000 0 -1359833.437 -14827336.242 20730036.121 10 0 60898 900.00000 0 -122576.842 -16948712.965 19079564.106 10 0 60898 1800.00000 0 844994.152 -18958791.126 17059074.637 10 0 60898 2700.00000 0 1547194.761 -20791878.825 14707626.220 10 0 60898 3600.00000 0 2000711.522 -22386303.371 12070723.798 10 0 60898 4500.00000 0 2233662.421 -23686915.591 9199448.643 10 0 60898 5400.00000 0 2284171.481 -24647343.637 6149476.957 10 0 60898 6300.00000 0 2198517.562 -25231901.375 2980005.308 10 0 60898 7200.00000 0 2028935.402 -25417070.325 -247396.713 10 0 60898 8100.00000 0 1831161.926 -25192491.686 -3469984.393 10 0 60898 9000.00000 0 1661832.117 -24561425.365 -6625062.783 10 0 60898 9900.00000 0 1575835.537 -23540655.312 -9651213.998 10 0 60898 10800.00000 0 1623746.634 -22159843.961 -12489502.140 10 0 60898 11700.00000 0 1849439.131 -20460361.977 -15084631.292 10 0 60898 12600.00000 0 2287987.172 -18493641.945 -17386032.915 10 0 60898 13500.00000 0 2963943.753 -16319124.958 -19348860.460 10 0 60898 14400.00000 0 3890070.910 -14001886.352 -20934870.990 10 0 60898 15300.00000 0 5066576.860 -11610040.546 -22113176.014 10 0 60898 16200.00000 0 6480893.605 -9212034.113 -22860846.564 10 0 60898 17100.00000 0 8108005.481 -6873940.796 -23163360.618 10 0 60898 18000.00000 0 9911315.631 -4656871.912 -23014884.240 10 0 60898 18900.00000 0 11844014.513 -2614610.385 -22418381.219 10 0 60898 19800.00000 0 13850893.300 -791566.932 -21385549.458 10 0 60898 20700.00000 0 15870526.129 778856.892 -19936585.757 10 0 60898 21600.00000 0 17837729.631 2075431.513 -18099784.099 10 0 60898 22500.00000 0 19686196.485 3089740.905 -15910975.715 10 0 60898 23400.00000 0 21351192.413 3826277.909 -13412822.419 10 0 60898 24300.00000 0 22772203.440 4301991.390 -10653977.504 10 0 60898 25200.00000 0 23895422.452 4545306.488 -7688131.084 10 0 60898 26100.00000 0 24675970.931 4594661.363 -4572959.122 10 0 60898 27000.00000 0 25079763.060 4496624.099 -1368997.106 10 0 60898 27900.00000 0 25084934.601 4303670.978 1861539.178 10 0 60898 28800.00000 0 24682777.328 4071721.279 5055962.433 10 0 60898 29700.00000 0 23878140.734 3857533.745 8152328.469 10 0 60898 30600.00000 0 22689285.041 3716075.228 11090633.065 10 0 60898 31500.00000 0 21147192.492 3697972.838 13813968.050 10 0 60898 32400.00000 0 19294366.400 3847156.983 16269614.743 10 0 60898 33300.00000 0 17183168.452 4198794.352 18410054.344 10 0 60898 34200.00000 0 14873763.715 4777597.504 20193876.691 10 0 60898 35100.00000 0 12431758.590 5596581.862 21586570.978 10 0 60898 36000.00000 0 9925629.254 6656322.221 22561184.297 10 0 60898 36900.00000 0 7424046.419 7944740.218 23098836.348 10 0 60898 37800.00000 0 4993206.143 9437432.315 23189081.229 10 0 60898 38700.00000 0 2694275.998 11098525.691 22830109.883 10 0 60898 39600.00000 0 581061.071 12882027.693 22028789.385 10 0 60898 40500.00000 0 -1302014.728 14733614.242 20800538.067 10 0 60898 41400.00000 0 -2921529.378 16592784.398 19169038.154 10 0 60898 42300.00000 0 -4256218.995 18395292.903 17165790.415 10 0 60898 43200.00000 0 -5297622.019 20075760.719 14829518.147 10 0 60898 44100.00000 0 -6050184.775 21570355.638 12205430.576 10 0 60898 45000.00000 0 -6530824.009 22819431.541 9344358.590 10 0 60898 45900.00000 0 -6767964.645 23770015.909 6301778.339 10 0 60898 46800.00000 0 -6800093.033 24378040.900 3136740.716 10 0 60898 47700.00000 0 -6673886.527 24610223.411 -89272.964 10 0 60898 48600.00000 0 -6441998.390 24445513.850 -3313546.990 10 0 60898 49500.00000 0 -6160591.990 23876051.134 -6473355.404 10 0 60898 50400.00000 0 -5886729.260 22907582.165 -9507189.767 10 0 60898 51300.00000 0 -5675724.938 21559326.545 -12355965.732 10 0 60898 52200.00000 0 -5578579.874 19863290.934 -14964183.868 10 0 60898 53100.00000 0 -5639603.535 17863060.835 -17281021.000 10 0 60898 54000.00000 0 -5894327.842 15612119.927 -19261329.816 10 0 60898 54900.00000 0 -6367802.138 13171767.139 -20866526.412 10 0 60898 55800.00000 0 -7073342.742 10608718.784 -22065347.882 10 0 60898 56700.00000 0 -8011791.131 7992496.373 -22834464.799 10 0 60898 57600.00000 0 -9171313.029 5392709.601 -23158936.560 10 0 60898 58500.00000 0 -10527747.599 2876348.330 -23032500.798 10 0 60898 59400.00000 0 -12045492.486 505196.725 -22457691.464 10 0 60898 60300.00000 0 -13678887.721 -1666522.750 -21445783.675 10 0 60898 61200.00000 0 -15374040.285 -3594177.620 -20016566.794 10 0 60898 62100.00000 0 -17071012.523 -5244342.271 -18197950.703 10 0 60898 63000.00000 0 -18706282.228 -6595937.160 -16025413.381 10 0 60898 63900.00000 0 -20215370.731 -7640844.447 -13541301.120 10 0 60898 64800.00000 0 -21535528.351 -8383976.243 -10793995.535 10 0 60898 65700.00000 0 -22608364.197 -8842794.854 -7836964.148 10 0 60898 66600.00000 0 -23382309.759 -9046307.408 -4727713.642 10 0 60898 67500.00000 0 -23814812.898 -9033579.396 -1526666.705 10 0 60898 68400.00000 0 -23874170.361 -8851831.720 1704015.162 10 0 60898 69300.00000 0 -23540922.301 -8554203.211 4901639.555 10 0 60898 70200.00000 0 -22808750.861 -8197274.287 8004198.056 10 0 60898 71100.00000 0 -21684845.769 -7838457.151 10951564.504 10 0 60898 72000.00000 0 -20189722.244 -7533363.078 13686653.579 10 0 60898 72900.00000 0 -18356499.334 -7333257.844 16156517.765 10 0 60898 73800.00000 0 -16229669.092 -7282712.292 18313362.226 10 0 60898 74700.00000 0 -13863407.931 -7417546.476 20115458.913 10 0 60898 75600.00000 0 -11319500.130 -7763153.327 21527943.388 10 0 60898 76500.00000 0 -8664959.075 -8333271.877 22523480.123 10 0 60898 77400.00000 0 -5969444.015 -9129261.337 23082784.495 10 0 60898 78300.00000 0 -3302578.126 -10139906.659 23194992.256 10 0 60898 79200.00000 0 -731277.565 -11341764.342 22857869.928 10 0 60898 80100.00000 0 1682799.336 -12700035.014 22077862.158 10 0 60898 81000.00000 0 3885578.500 -14169927.693 20869974.886 10 0 60898 81900.00000 0 5832576.994 -15698460.307 19257495.866 10 0 60898 82800.00000 0 7490508.062 -17226622.826 17271556.894 10 0 60898 83700.00000 0 8838418.270 -18691814.125 14950544.915 10 0 60898 84600.00000 0 9868309.844 -20030451.858 12339371.972 10 0 60898 85500.00000 0 10585222.299 -21180646.870 9488616.786 10 0 60899 0.00000 0 11006769.894 -22084830.262 6453553.642 10 0 60899 900.00000 0 11162154.336 -22692223.060 3293084.857 10 0 60899 1800.00000 0 11090693.598 -22961042.748 68601.147 10 0 60899 2700.00000 0 10839929.592 -22860354.278 -3157213.521 10 0 60899 3600.00000 0 10463394.113 -22371484.794 -6321605.034 10 0 60899 4500.00000 0 10018128.243 -21488941.258 -9362977.313 10 0 60899 5400.00000 0 9562060.827 -20220790.481 -12222100.494 10 0 60899 6300.00000 0 9151358.008 -18588483.880 -14843274.530 10 0 60899 7200.00000 0 8837857.235 -16626132.918 -17175424.423 10 0 60899 8100.00000 0 8666695.646 -14379264.597 -19173104.742 10 0 60899 9000.00000 0 8674234.507 -11903108.486 -20797393.027 10 0 60899 9900.00000 0 8886368.683 -9260486.727 -22016654.027 10 0 60899 10800.00000 0 9317293.618 -6519395.249 -22807159.531 10 0 60899 11700.00000 0 9968782.720 -3750377.370 -23153551.581 10 0 60899 12600.00000 0 10830006.180 -1023799.660 -23049140.124 10 0 60899 13500.00000 0 11877899.178 1592856.159 -22496029.548 10 0 60899 14400.00000 0 13078064.018 4037572.458 -21505071.994 10 0 60899 15300.00000 0 14386168.071 6256138.798 -20095648.773 10 0 60899 16200.00000 0 15749778.340 8204161.898 -18295284.635 10 0 60899 17100.00000 0 17110555.049 9848659.623 -16139102.880 10 0 60899 18000.00000 0 18406711.447 11169173.851 -13669132.464 10 0 60899 18900.00000 0 19575635.850 12158357.451 -10933481.150 10 0 60899 19800.00000 0 20556565.170 12822012.871 -7985391.346 10 0 60899 20700.00000 0 21293197.122 13178582.886 -4882197.641 10 0 60899 21600.00000 0 21736131.041 13258117.192 -1684206.893 10 0 60899 22500.00000 0 21845034.643 13100760.431 1546476.846 10 0 60899 23400.00000 0 21590445.825 12754827.221 4747159.251 10 0 60899 24300.00000 0 20955134.077 12274546.889 7855770.783 10 0 60899 25200.00000 0 19934964.785 11717574.081 10812066.297 10 0 60899 26100.00000 0 18539230.576 11142370.910 13558786.054 10 0 60899 27000.00000 0 16790436.164 10605571.148 16042756.177 10 0 60899 27900.00000 0 14723545.840 10159437.323 18215907.995 10 0 60899 28800.00000 0 12384724.906 9849517.252 20036197.481 10 0 60899 29700.00000 0 9829627.080 9712597.887 21468408.182 10 0 60899 30600.00000 0 7121298.323 9775041.711 22484823.259 10 0 60899 31500.00000 0 4327783.067 10051574.996 23065754.732 10 0 60899 32400.00000 0 1519530.766 10544578.386 23199920.614 10 0 60899 33300.00000 0 -1233291.341 11243909.651 22884663.193 10 0 60899 34200.00000 0 -3863469.542 12127266.518 22126004.429 10 0 60899 35100.00000 0 -6309289.986 13161075.295 20938537.151 10 0 60899 36000.00000 0 -8516855.969 14301869.336 19345153.457 10 0 60899 36900.00000 0 -10442081.163 15498101.030 17376614.553 10 0 60899 37800.00000 0 -12052276.845 16692312.901 15070969.051 10 0 60899 38700.00000 0 -13327267.592 17823578.087 12472829.547 10 0 60899 39600.00000 0 -14259989.067 18830108.795 9632520.118 10 0 60899 40500.00000 0 -14856542.873 19651923.735 6605110.034 10 0 60899 41400.00000 0 -15135705.974 20233462.366 3449351.472 10 0 60899 42300.00000 0 -15127915.024 20526035.397 226541.337 10 0 60899 43200.00000 0 -14873768.197 20490007.266 -3000670.826 10 0 60899 44100.00000 0 -14422107.671 20096617.122 -6169505.398 10 0 60899 45000.00000 0 -13827763.990 19329359.773 -9218281.246 10 0 60899 45900.00000 0 -13149058.138 18184866.463 -12087625.478 10 0 60899 46800.00000 0 -12445167.777 16673246.491 -14721639.775 10 0 60899 47700.00000 0 -11773470.033 14817873.518 -17068999.463 10 0 60899 48600.00000 0 -11186974.362 12654624.118 -19083962.913 10 0 60899 49500.00000 0 -10731955.185 10230599.377 -20727270.770 10 0 60899 50400.00000 0 -10445885.422 7602382.397 -21966916.828 10 0 60899 51300.00000 0 -10355759.104 4833904.227 -22778775.183 10 0 60899 52200.00000 0 -10476874.521 1994007.244 -23147071.292 10 0 60899 53100.00000 0 -10812129.666 -846192.228 -23064687.845 10 0 60899 54000.00000 0 -11351859.748 -3616031.997 -22533299.708 10 0 60899 54900.00000 0 -12074223.501 -6248009.055 -21563335.681 10 0 60899 55800.00000 0 -12946121.611 -8680349.017 -20173768.228 10 0 60899 56700.00000 0 -13924608.019 -10859333.292 -18391735.768 10 0 60899 57600.00000 0 -14958733.980 -12741287.720 -16252005.341 10 0 60899 58500.00000 0 -15991746.446 -14294150.770 -13796286.684 10 0 60899 59400.00000 0 -16963547.432 -15498557.256 -11072411.579 10 0 60899 60300.00000 0 -17813310.060 -16348394.046 -8133395.031 10 0 60899 61200.00000 0 -18482140.494 -16850806.454 -5036397.156 10 0 60899 62100.00000 0 -18915673.169 -17025657.222 -1841606.538 10 0 60899 63000.00000 0 -19066489.777 -16904462.951 1388932.687 10 0 60899 63900.00000 0 -18896260.073 -16528854.680 4592526.758 10 0 60899 64800.00000 0 -18377514.519 -15948629.164 7707047.528 10 0 60899 65700.00000 0 -17494974.464 -15219474.237 10672133.367 10 0 60899 66600.00000 0 -16246384.240 -14400464.954 13430352.589 10 0 60899 67500.00000 0 -14642810.508 -13551436.376 15928307.339 10 0 60899 68400.00000 0 -12708396.363 -12730343.475 18117657.343 10 0 60899 69300.00000 0 -10479580.306 -11990718.792 19956044.621 10 0 60899 70200.00000 0 -8003812.198 -11379333.913 21407902.448 10 0 60899 71100.00000 0 -5337818.798 -10934162.058 22445134.096 10 0 60899 72000.00000 0 -2545489.882 -10682726.376 23047649.315 10 0 60899 72900.00000 0 304528.790 -10640902.452 23203749.104 10 0 60899 73800.00000 0 3141437.518 -10812224.766 22910351.908 10 0 60899 74700.00000 0 5894973.626 -11187726.097 22173057.073 10 0 60899 75600.00000 0 8498081.579 -11746316.966 21006044.082 10 0 60899 76500.00000 0 10889453.219 -12455689.967 19431808.859 10 0 60899 77400.00000 0 13015833.992 -13273712.153 17480741.210 10 0 60899 78300.00000 0 14834000.412 -14150248.283 15190550.294 10 0 60899 79200.00000 0 16312327.078 -15029339.623 12605547.808 10 0 60899 80100.00000 0 17431878.153 -15851647.775 9775801.389 10 0 60899 81000.00000 0 18186977.668 -16557061.429 6756173.417 10 0 60899 81900.00000 0 18585234.477 -17087356.532 3605262.900 10 0 60899 82800.00000 0 18647020.453 -17388797.419 384270.445 10 0 60899 83700.00000 0 18404423.496 -17414568.424 -2844191.776 10 0 60899 84600.00000 0 17899719.238 -17126931.999 -6017321.696 10 0 60899 85500.00000 0 17183425.895 -16499020.589 -9073356.202 10 0 60900 0.00000 0 16312024.727 -15516184.808 -11952782.148 10 0 60900 900.00000 0 15345442.460 -14176838.444 -14599506.362 10 0 60900 1800.00000 0 14344404.030 -12492764.087 -16961956.967 10 0 60900 2700.00000 0 13367766.869 -10488863.042 -18994098.662 10 0 60900 3600.00000 0 12469951.499 -8202359.739 -20656337.452 10 0 60900 4500.00000 0 11698577.385 -5681492.455 -21916298.102 10 0 60900 5400.00000 0 11092404.713 -2983744.509 -22749458.553 10 0 60900 6300.00000 0 10679669.409 -173689.403 -23139628.789 10 0 60900 7200.00000 0 10476881.883 2679460.217 -23079264.876 10 0 60900 8100.00000 0 10488140.024 5504497.584 -22569612.318 10 0 60900 9000.00000 0 10704985.057 8230950.564 -21620676.255 10 0 60900 9900.00000 0 11106805.703 10791780.418 -20251019.531 10 0 60900 10800.00000 0 11661772.788 13125938.378 -18487393.016 10 0 60900 11700.00000 0 12328263.951 15180673.916 -16364205.866 10 0 60900 12600.00000 0 13056717.371 16913499.174 -13922846.569 10 0 60900 13500.00000 0 13791835.331 18293728.642 -11210868.541 10 0 60900 14400.00000 0 14475043.701 19303531.174 -8281056.669 10 0 60900 15300.00000 0 15047102.766 19938451.981 -5190393.600 10 0 60900 16200.00000 0 15450758.576 20207384.663 -1998946.467 10 0 60900 17100.00000 0 15633322.509 20131996.469 1231303.794 10 0 60900 18000.00000 0 15549069.993 19745632.841 4437667.265 10 0 60900 18900.00000 0 15161357.225 19091749.140 7557960.355 10 0 60900 19800.00000 0 14444366.830 18221936.939 10531707.918 10 0 60900 20700.00000 0 13384409.162 17193629.023 13301309.023 10 0 60900 21600.00000 0 11980724.745 16067580.192 15813144.249 10 0 60900 22500.00000 0 10245754.190 14905229.908 18018603.809 10 0 60900 23400.00000 0 8204864.125 13766057.245 19875017.535 10 0 60900 24300.00000 0 5895540.085 12705038.435 21346469.869 10 0 60900 25200.00000 0 3366079.201 11770312.681 22404485.294 10 0 60900 26100.00000 0 673835.920 11001152.955 23028572.033 10 0 60900 27000.00000 0 -2116907.771 10426325.695 23206614.425 10 0 60900 27900.00000 0 -4937361.025 10062907.205 22935107.011 10 0 60900 28800.00000 0 -7716833.158 9915605.711 22219226.003 10 0 60900 29700.00000 0 -10385426.782 9976617.290 21072736.548 10 0 60900 30600.00000 0 -12876705.058 10226021.882 19517736.936 10 0 60900 31500.00000 0 -15130223.883 10632703.407 17584243.672 10 0 60900 32400.00000 0 -17093824.932 11155756.210 15309624.183 10 0 60900 33300.00000 0 -18725594.908 11746319.759 12737886.691 10 0 60900 34200.00000 0 -19995409.611 12349765.383 9918839.623 10 0 60900 35100.00000 0 -20885998.296 12908143.739 6907135.611 10 0 60900 36000.00000 0 -21393483.440 13362790.215 3761217.622 10 0 60900 36900.00000 0 -21527372.719 13656978.279 542187.153 10 0 60900 37800.00000 0 -21310002.992 13738508.136 -2687383.726 10 0 60900 38700.00000 0 -20775459.190 13562120.240 -5864673.117 10 0 60900 39600.00000 0 -19968013.363 13091630.172 -8927838.442 10 0 60900 40500.00000 0 -18940149.710 12301692.802 -11817229.162 10 0 60900 41400.00000 0 -17750259.160 11179119.263 -14476558.423 10 0 60900 42300.00000 0 -16460101.389 9723689.067 -16854009.672 10 0 60900 43200.00000 0 -15132142.069 7948421.230 -18903255.664 10 0 60900 44100.00000 0 -13826878.562 5879291.220 -20584369.186 10 0 60900 45000.00000 0 -12600267.641 3554404.211 -21864607.056 10 0 60900 45900.00000 0 -11501364.361 1022658.216 -22719051.777 10 0 60900 46800.00000 0 -10570271.995 -1658047.680 -23131098.191 10 0 60900 47700.00000 0 -9836489.554 -4422985.520 -23092775.693 10 0 60900 48600.00000 0 -9317726.265 -7203060.575 -22604899.977 10 0 60900 49500.00000 0 -9019232.400 -9927460.739 -21677051.692 10 0 60900 50400.00000 0 -8933673.832 -12526382.708 -20327382.848 10 0 60900 51300.00000 0 -9041554.498 -14933721.399 -18582255.208 10 0 60900 52200.00000 0 -9312167.759 -17089610.702 -16475718.176 10 0 60900 53100.00000 0 -9705035.211 -18942710.007 -14048836.900 10 0 60900 54000.00000 0 -10171770.923 -20452141.792 -11348884.166 10 0 60900 54900.00000 0 -10658291.171 -21589000.364 -8428412.403 10 0 60900 55800.00000 0 -11107275.243 -22337369.939 -5344224.439 10 0 60900 56700.00000 0 -11460772.457 -22694811.013 -2156263.616 10 0 60900 57600.00000 0 -11662844.578 -22672296.395 1073554.608 10 0 60900 58500.00000 0 -11662131.577 -22293601.359 4282546.396 10 0 60900 59400.00000 0 -11414232.204 -21594175.262 7408474.899 10 0 60900 60300.00000 0 -10883798.933 -20619543.553 10390753.611 10 0 60900 61200.00000 0 -10046259.080 -19423308.486 13171614.464 10 0 60900 62100.00000 0 -8889089.811 -18064833.308 15697218.488 10 0 60900 63000.00000 0 -7412593.507 -16606707.412 17918688.287 10 0 60900 63900.00000 0 -5630140.834 -15112098.639 19793043.226 10 0 60900 64800.00000 0 -3567870.968 -13642103.082 21284020.415 10 0 60900 65700.00000 0 -1263860.689 -12253202.396 22362766.791 10 0 60900 66600.00000 0 1233204.059 -10994933.837 23008389.990 10 0 60900 67500.00000 0 3865800.336 -9907869.188 23208358.339 10 0 60900 68400.00000 0 6569712.178 -9021985.831 22958742.817 10 0 60900 69300.00000 0 9276459.224 -8355497.103 22264296.559 10 0 60900 70200.00000 0 11915911.159 -7914190.124 21138370.164 10 0 60900 71100.00000 0 14418981.342 -7691298.516 19602663.793 10 0 60900 72000.00000 0 16720289.352 -7667915.426 17686819.896 10 0 60900 72900.00000 0 18760683.079 -7813929.960 15427863.116 10 0 60900 73800.00000 0 20489516.256 -8089448.334 12869496.843 10 0 60900 74700.00000 0 21866586.850 -8446640.753 10061268.597 10 0 60900 75600.00000 0 22863655.343 -8831936.899 7057619.209 10 0 60900 76500.00000 0 23465478.969 -9188477.882 3916833.213 10 0 60900 77400.00000 0 23670317.885 -9458721.231 699910.294 10 0 60900 78300.00000 0 23489891.255 -9587088.478 -2530620.508 10 0 60900 79200.00000 0 22948784.348 -9522542.531 -5711920.536 10 0 60900 80100.00000 0 22083330.983 -9220984.543 -8782070.836 10 0 60900 81000.00000 0 20940018.078 -8647367.227 -11681286.258 10 0 60900 81900.00000 0 19573479.445 -7777433.375 -14353089.662 10 0 60900 82800.00000 0 18044163.693 -6599004.073 -16745422.224 10 0 60900 83700.00000 0 16415774.985 -5112760.266 -18811667.197 10 0 60900 84600.00000 0 14752595.133 -3332482.824 -20511566.316 10 0 60900 85500.00000 0 13116800.524 -1284739.404 -21812010.322 10 0 60901 0.00000 0 11565887.541 991969.891 -22687687.764 10 0 60901 900.00000 0 10150314.398 3448574.446 -23121579.665 10 0 60901 1800.00000 0 8911460.744 6027243.271 -23105289.405 10 0 60901 2700.00000 0 7879987.848 8663572.020 -22639203.173 10 0 60901 3600.00000 0 7074669.789 11289052.781 -21732476.968 10 0 60901 4500.00000 0 6501743.041 13833724.713 -20402851.328 10 0 60901 5400.00000 0 6154800.716 16228894.728 -18676297.794 10 0 60901 6300.00000 0 6015234.434 18409814.775 -16586504.447 10 0 60901 7200.00000 0 6053203.624 20318204.120 -14174211.069 10 0 60901 8100.00000 0 6229089.741 21904511.704 -11486407.387 10 0 60901 9000.00000 0 6495372.450 23129824.675 -8575410.567 10 0 60901 9900.00000 0 6798847.096 23967344.182 -5497840.494 10 0 60901 10800.00000 0 7083088.547 24403367.835 -2313513.381 10 0 60901 11700.00000 0 7291056.282 24437739.078 915724.267 10 0 60901 12600.00000 0 7367729.926 24083746.166 4127198.183 10 0 60901 13500.00000 0 7262663.445 23367476.526 7258621.658 10 0 60901 14400.00000 0 6932349.984 22326655.066 10249300.021 10 0 60901 15300.00000 0 6342297.576 21009016.365 13041300.992 10 0 60901 16200.00000 0 5468728.393 19470279.918 15580568.658 10 0 60901 17100.00000 0 4299830.128 17771813.719 17817960.261 10 0 60901 18000.00000 0 2836506.936 15978084.067 19710186.587 10 0 60901 18900.00000 0 1092598.189 14153997.803 21220638.926 10 0 60901 19800.00000 0 -905444.696 12362247.220 22320087.785 10 0 60901 20700.00000 0 -3119410.792 10660767.373 22987240.940 10 0 60901 21600.00000 0 -5500677.345 9100410.565 23209150.993 10 0 60901 22500.00000 0 -7991998.138 7722933.622 22981465.197 10 0 60901 23400.00000 0 -10529660.031 6559380.677 22308512.951 10 0 60901 24300.00000 0 -13045920.013 5628927.888 21203229.130 10 0 60901 25200.00000 0 -15471623.465 4938237.586 19686914.099 10 0 60901 26100.00000 0 -17738896.520 4481348.533 17788834.076 10 0 60901 27000.00000 0 -19783801.942 4240106.813 15545668.333 10 0 60901 27900.00000 0 -21548848.940 4185119.615 13000812.477 10 0 60901 28800.00000 0 -22985252.724 4277192.274 10203549.936 10 0 60901 29700.00000 0 -24054849.430 4469188.600 7208106.426 10 0 60901 30600.00000 0 -24731585.908 4708236.508 4072604.721 10 0 60901 31500.00000 0 -25002521.114 4938185.960 857939.438 10 0 60901 32400.00000 0 -24868296.146 5102215.170 -2373406.528 10 0 60901 33300.00000 0 -24343052.122 5145474.170 -5558580.694 10 0 60901 34200.00000 0 -23453798.430 5017652.826 -8635590.463 10 0 60901 35100.00000 0 -22239257.209 4675363.159 -11544518.584 10 0 60901 36000.00000 0 -20748232.322 4084233.421 -14228699.896 10 0 60901 36900.00000 0 -19037571.385 3220623.453 -16635835.278 10 0 60901 37800.00000 0 -17169806.851 2072886.898 -18719020.105 10 0 60901 38700.00000 0 -15210575.845 642125.090 -20437666.280 10 0 60901 39600.00000 0 -13225927.789 -1057600.840 -21758299.240 10 0 60901 40500.00000 0 -11279633.515 -2999610.045 -22655213.978 10 0 60901 41400.00000 0 -9430609.259 -5145481.088 -23110977.180 10 0 60901 42300.00000 0 -7730563.854 -7446434.091 -23116765.722 10 0 60901 43200.00000 0 -6221967.687 -9845158.532 -22672535.172 10 0 60901 44100.00000 0 -4936428.076 -12278010.528 -21787015.346 10 0 60901 45000.00000 0 -3893538.369 -14677487.777 -20477533.439 10 0 60901 45900.00000 0 -3100247.781 -16974878.732 -18769668.606 10 0 60901 46800.00000 0 -2550776.875 -19102975.264 -16696745.212 10 0 60901 47700.00000 0 -2227080.473 -20998735.421 -14299175.136 10 0 60901 48600.00000 0 -2099836.592 -22605785.110 -11623662.431 10 0 60901 49500.00000 0 -2129917.858 -23876654.400 -8722286.382 10 0 60901 50400.00000 0 -2270281.519 -24774655.368 -5651481.390 10 0 60901 51300.00000 0 -2468196.653 -25275323.666 -2470934.106 10 0 60901 52200.00000 0 -2667713.166 -25367364.412 757580.216 10 0 60901 53100.00000 0 -2812267.187 -25053063.960 3971399.022 10 0 60901 54000.00000 0 -2847312.077 -24348151.558 7108187.748 10 0 60901 54900.00000 0 -2722863.525 -23281117.966 10107145.440 10 0 60901 55800.00000 0 -2395851.178 -21892020.749 12910177.343 10 0 60901 56700.00000 0 -1832177.695 -20230827.166 15463012.214 10 0 60901 57600.00000 0 -1008398.686 -18355364.548 17716243.373 10 0 60901 58500.00000 0 87047.027 -16328964.014 19626274.272 10 0 60901 59400.00000 0 1453108.505 -14217895.627 21156151.397 10 0 60901 60300.00000 0 3075926.038 -12088701.256 22276269.591 10 0 60901 61200.00000 0 4929175.649 -10005535.252 22964937.258 10 0 60901 62100.00000 0 6974941.443 -8027622.364 23208791.492 10 0 60901 63000.00000 0 9165080.868 -6206937.255 23003055.767 10 0 60901 63900.00000 0 11443027.753 -4586200.782 22351635.448 10 0 60901 64800.00000 0 13745959.966 -3197275.192 21267049.162 10 0 60901 65700.00000 0 16007243.463 -2060024.049 19770196.726 10 0 60901 66600.00000 0 18159052.801 -1181683.750 17889967.184 10 0 60901 67500.00000 0 20135060.530 -556772.517 15662693.262 10 0 60901 68400.00000 0 21873084.504 -167540.598 13131461.391 10 0 60901 69300.00000 0 23317583.246 15056.992 10345289.262 10 0 60901 70200.00000 0 24421895.193 29905.798 7358185.564 10 0 60901 71100.00000 0 25150127.714 -76143.760 4228109.124 10 0 60901 72000.00000 0 25478615.889 -250494.110 1015847.056 10 0 60901 72900.00000 0 25396888.734 -437266.521 -2216166.521 10 0 60901 73800.00000 0 24908101.004 -579910.595 -5405068.055 10 0 60901 74700.00000 0 24028911.181 -623846.007 -8488794.089 10 0 60901 75600.00000 0 22788809.702 -519023.429 -11407297.993 10 0 60901 76500.00000 0 21228924.865 -222294.683 -14103729.157 10 0 60901 77400.00000 0 19400356.170 300509.883 -16525550.544 10 0 60901 78300.00000 0 17362105.044 1072886.526 -18625571.797 10 0 60901 79200.00000 0 15178690.013 2106419.103 -20362876.920 10 0 60901 80100.00000 0 12917546.877 3400049.962 -21703627.733 10 0 60901 81000.00000 0 10646323.363 4939892.857 -22621727.068 10 0 60901 81900.00000 0 8430182.095 6699597.039 -23099328.619 10 0 60901 82800.00000 0 6329225.102 8641248.070 -23127183.542 10 0 60901 83700.00000 0 4396147.691 10716768.206 -22704817.302 10 0 60901 84600.00000 0 2674219.493 12869757.976 -21840533.659 10 0 60901 85500.00000 0 1195676.460 15037701.933 -20551246.131 99